Change the Weather History Date:

Saturday, September 1, 2012

  Actual Average Record
Temperature  
Mean Temperature 86 °F 79 °F  
Max Temperature 98 °F 91 °F 108 °F (2000)
Min Temperature 74 °F 68 °F 49 °F (1967)
Cooling Degree Days 21 14  
Month to date cooling degree days 21 14  
Year to date cooling degree days 2437 1709  
Growing Degree Days 36 (Base 50)    
Moisture  
Dew Point 68 °F    
Average Humidity 63    
Maximum Humidity 93    
Minimum Humidity 33    
Precipitation  
Precipitation 0.00 in 0.11 in 2.42 in (1934)
Month to date precipitation 0.00 0.11  
Year to date precipitation 26.46 29.47  
Sea Level Pressure  
Sea Level Pressure 29.90 in    
Wind  
Wind Speed 9 mph (WSW)    
Max Wind Speed 20 mph    
Max Gust Speed 25 mph    
Visibility 10 miles    
Events      
T = Trace of Precipitation, MM = Missing Value Source: NWS Daily Summary

Daily Weather History Graph

Daily Weather History Graph

Search for Another Location

Airport or City:

Trip Planner

Search our weather history database for the weather conditions in past years. The results will help you decide how hot, cold, wet, or windy it might be!

Date:

Astronomy

Sep. 01, 2012 Rise Set
Actual Time 6:50 AM CDT 7:43 PM CDT
Civil Twilight 6:24 AM CDT 8:09 PM CDT
Nautical Twilight 5:53 AM CDT 8:40 PM CDT
Astronomical Twilight 5:21 AM CDT 9:11 PM CDT
Moon 8:06 PM CDT (9/1) 7:53 AM CDT (9/1)
Length of Visible Light 13h 45m
Length of Day
12h 53m
Full, 99% of the Moon is Illuminated
Sep 1
Full
Sep 8
Last Quarter
Sep 15
New
Sep 22
First Quarter
Sep 29
Full

Hourly Weather History & Observations

Time (CDT) Temp. Heat Index Dew Point Humidity Pressure Visibility Wind Dir Wind Speed Gust Speed Precip Events Conditions
12:53 AM 73.9 °F - 71.1 °F 91% 29.89 in 10.0 mi Calm Calm - N/A   Overcast
1:53 AM 73.9 °F - 71.1 °F 91% 29.90 in 10.0 mi SW 4.6 mph - N/A   Overcast
2:53 AM 75.0 °F - 71.1 °F 87% 29.91 in 10.0 mi West 5.8 mph - N/A   Overcast
3:53 AM 73.9 °F - 70.0 °F 87% 29.90 in 10.0 mi West 8.1 mph - N/A   Partly Cloudy
4:53 AM 73.4 °F - 69.8 °F 88% 29.91 in 10.0 mi SW 4.6 mph - N/A   Clear
5:53 AM 77.0 °F - 70.0 °F 79% 29.91 in 10.0 mi West 5.8 mph - N/A   Clear
6:53 AM 73.9 °F - 70.0 °F 87% 29.93 in 10.0 mi Calm Calm - N/A   Partly Cloudy
7:53 AM 78.1 °F - 70.0 °F 76% 29.94 in 10.0 mi SW 8.1 mph - N/A   Partly Cloudy
8:53 AM 80.1 °F 83.6 °F 71.1 °F 74% 29.96 in 10.0 mi WSW 8.1 mph - N/A   Clear
9:53 AM 84.0 °F 89.0 °F 71.1 °F 65% 29.96 in 10.0 mi WSW 13.8 mph 20.7 mph N/A   Clear
10:53 AM 84.9 °F 90.1 °F 71.1 °F 63% 29.96 in 10.0 mi WSW 15.0 mph - N/A   Clear
11:53 AM 88.0 °F 94.7 °F 72.0 °F 59% 29.94 in 10.0 mi West 16.1 mph - N/A   Clear
12:53 PM 91.0 °F 97.6 °F 71.1 °F 52% 29.93 in 10.0 mi West 13.8 mph 20.7 mph N/A   Clear
1:53 PM 91.9 °F 97.4 °F 70.0 °F 48% 29.92 in 10.0 mi West 13.8 mph - N/A   Clear
2:53 PM 93.9 °F 99.1 °F 69.1 °F 44% 29.89 in 10.0 mi West 17.3 mph - N/A   Clear
3:53 PM 96.1 °F 99.3 °F 66.0 °F 37% 29.87 in 10.0 mi West 15.0 mph 24.2 mph N/A   Clear
4:53 PM 97.0 °F 98.3 °F 63.0 °F 32% 29.84 in 10.0 mi West 13.8 mph 23.0 mph N/A   Clear
5:53 PM 97.0 °F 97.8 °F 62.1 °F 31% 29.84 in 10.0 mi West 13.8 mph - N/A   Clear
6:53 PM 93.9 °F 95.6 °F 64.0 °F 37% 29.84 in 10.0 mi West 9.2 mph - N/A   Clear
7:53 PM 88.0 °F 89.6 °F 64.9 °F 46% 29.84 in 10.0 mi WSW 4.6 mph - N/A   Clear
8:53 PM 86.0 °F 88.2 °F 66.0 °F 51% 29.87 in 10.0 mi WSW 3.5 mph - N/A   Clear
9:53 PM 82.9 °F 85.0 °F 66.0 °F 56% 29.88 in 10.0 mi West 5.8 mph - N/A   Clear
10:53 PM 81.0 °F 82.7 °F 64.9 °F 58% 29.89 in 10.0 mi WSW 5.8 mph - N/A   Clear
11:53 PM 80.1 °F 81.9 °F 64.9 °F 60% 29.90 in 10.0 mi Variable 4.6 mph - N/A   Clear